Flag for Canada Weather past 2 weeks in Kawartha Lakes, Ontario, Canada

Now
67 °F

Mild.


Feels Like: 67 °F
Forecast: N/A
Wind: 7 mph from Northwest

Location: Lagoon City

Current Time: Jul 2, 2015 at 5:51:05 PM

Latest Report: Jul 2, 2015 at 4:00 PM


Visibility: N/A

Pressure: 29.95 "Hg

Humidity: 42%

Dew point: 43 °F

Location of Kawartha LakesLocation

Historic Weather in Kawartha Lakes — Graph

°F

Kawartha Lakes temperature yesterday

Maximum temperature yesterday: 66 °F (at 3:00 PM)
Minimum temperature yesterday: 58 °F (at 11:00 PM)
Average temperature yesterday: 63 °F

Past Weeks' High & Low Weather Summary

 TemperatureHumidityPressure
High75 °F (Jun 22, 5:00 PM)100% (Jun 28, 10:00 AM)30.11 "Hg (Jun 28, 10:00 AM)
Low51 °F (Jul 2, 6:00 AM)35% (Jun 19, 1:00 PM)29.57 "Hg (Jun 23, 6:00 AM)
Average63 °F76%29.91 "Hg
* Reported Jun 17 4:00 PM — Jul 2 4:00 PM, Kawartha Lakes, Weather by CustomWeather, © 2015

Note: Actual official high and low records may vary slightly from our data, if they occured in-between our weather recording intervals... More about our weather records

Advertising

Kawartha Lakes weather history for previous 24 hours

 ConditionsComfort  
Time TempWeatherWind HumidityBarometerVisibility
4:00 PM
Thu, Jul 2
67 °FMild.7 mph42%29.95 "HgN/A
3:00 PM66 °FMild.8 mph46%29.96 "HgN/A
2:00 PM65 °FMild.10 mph45%29.97 "HgN/A
1:00 PM65 °FMild.9 mph38%29.98 "HgN/A
12:00 PM64 °FMild.12 mph39%29.97 "HgN/A
11:00 AM63 °FMild.13 mph47%29.97 "HgN/A
10:00 AM62 °FRefreshingly cool.12 mph54%29.96 "HgN/A
9:00 AM59 °FCool.12 mph71%29.96 "HgN/A
8:00 AM57 °FCool.7 mph82%29.96 "HgN/A
7:00 AM55 °FCool.7 mph88%29.95 "HgN/A
6:00 AM51 °FCool.3 mph94%29.94 "HgN/A
5:00 AM53 °FCool.7 mph92%29.93 "HgN/A
4:00 AM54 °FCool.8 mph91%29.93 "HgN/A
3:00 AM56 °FCool.6 mph87%29.93 "HgN/A
2:00 AM58 °FCool.7 mph81%29.92 "HgN/A
1:00 AM59 °FCool.7 mph78%29.92 "HgN/A
12:00 AM58 °FCool.9 mph89%29.90 "HgN/A
11:00 PM
Wed, Jul 1
58 °FCool.12 mph89%29.88 "HgN/A
10:00 PM61 °FCool.13 mph80%29.86 "HgN/A
9:00 PM62 °FMild.16 mph71%29.85 "HgN/A
8:00 PM63 °FMild.18 mph73%29.83 "HgN/A
7:00 PM65 °FMild.17 mph71%29.81 "HgN/A
6:00 PM65 °FMild.18 mph75%29.80 "HgN/A
5:00 PM63 °FMild.23 mph79%29.80 "HgN/A
Weather by CustomWeather, © 2015

See weather overviewHow to use our weather pages